Location: Ferchesar
(52.6477°N, 12.4298°E)
Time: 13:12:43
(UTC+01:00)

Altair - Pass Details

Date: 13 December 2021
Orbit: 1501 x 1683 km, 47.2° (Epoch: 27 January)

Event Time Altitude Azimuth Distance (km) Brightness Sun altitude
Rises 18:46:04 0° 283° (WNW) 4,736 11.2 -24.4°
Reaches altitude 10° 18:49:24 10° 276° (W) 3,727 10.5 -24.9°
Maximum altitude 18:57:47 39° 212° (SSW) 2,131 8.4 -26.2°
Enters shadow 19:05:23 12° 150° (SSE) 3,466 9.1 -27.3°
